DW6233 Weather Reports


time (UTC)temp
F
wind
direction
speed
knots
gust
knots
rain 1hr
in
rain 24hr
in
rain mn
in
humidity
%
barometer
mb
20260509063046 59 11 16.5 29.5 0.00 0.34 0.00 81 998.2
20260509061509 59 352 18.2 33.9 0.00 0.34 0.00 81 998.1
20260509060057 59 352 14.8 28.7 0.00 0.34 0.00 81 997.8
20260509054525 59 355 17.4 27.8 0.00 0.34 0.00 81 997.8
20260509051601 60 9 15.6 24.3 0.00 0.34 0.00 80 998.2
20260509050011 60 19 12.2 20.9 0.00 0.34 0.00 80 998.1
20260509044548 60 18 15.6 23.5 0.00 0.34 0.00 80 998.2
20260509043046 61 31 15.6 27.8 0.00 0.34 0.00 80 998.2
20260509041527 60 350 14.8 30.4 0.00 0.34 0.00 82 998.2
20260509040014 61 2 17.4 30.4 0.00 0.34 0.00 80 997.9
20260509034546 61 14 17.4 32.2 0.00 0.34 0.00 80 997.9
20260509033025 61 356 18.2 30.4 0.00 0.34 0.00 81 998.1
20260509031547 61 31 18.2 28.7 0.00 0.34 0.00 83 998.0
20260509030032 61 4 13.0 20.9 0.00 0.34 0.00 83 997.8
20260509024600 61 349 17.4 25.2 0.00 0.34 0.00 84 997.9
20260509023004 61 9 15.6 26.9 0.00 0.34 0.00 84 997.7
20260509021534 61 23 18.2 26.9 0.00 0.34 0.00 85 997.9
20260509014550 61 22 11.3 29.5 0.00 0.34 0.00 86 998.3
20260509014538 61 349 11.3 29.5 0.00 0.34 0.00 86 998.3
20260509013100 61 14 22.6 31.3 0.00 0.34 0.00 85 997.6
20260509011523 61 353 20.0 40.8 0.00 0.34 0.00 85 997.9
20260509010010 61 14 21.7 31.3 0.00 0.34 0.00 86 997.9
20260509004539 61 359 19.1 29.5 0.00 0.34 0.00 85 998.3
20260509003044 61 24 17.4 28.7 0.00 0.34 0.00 86 998.4
20260509001528 61 10 21.7 29.5 0.00 0.34 0.00 86 998.3
20260509000048 62 22 17.4 26.1 0.00 0.34 0.00 85 998.6
20260508234535 61 338 19.1 26.9 0.00 0.34 0.00 86 998.6
20260508233012 61 359 18.2 31.3 0.00 0.34 0.00 86 998.7
20260508231530 61 2 24.3 33.9 0.00 0.34 0.00 85 998.6
20260508230020 60 357 23.5 33.0 0.00 0.34 0.00 86 998.7
20260508224542 61 19 21.7 32.2 0.00 0.34 0.00 84 998.8
20260508223022 62 351 20.0 34.8 0.00 0.34 0.00 83 999.0
20260508221536 61 344 16.5 31.3 0.00 0.34 0.00 84 999.2
20260508220055 62 336 20.9 37.4 0.00 0.34 0.00 82 999.4
20260508214539 61 356 23.5 33.9 0.00 0.34 0.00 82 999.4
20260508213055 61 350 17.4 29.5 0.00 0.34 0.00 83 999.6
20260508211534 61 349 16.5 26.1 0.00 0.34 0.00 82 999.8
20260508210015 62 356 18.2 30.4 0.00 0.34 0.00 81 999.9
20260508204542 62 319 13.0 26.9 0.00 0.34 0.00 82 999.8
20260508203017 61 59 18.2 29.5 0.00 0.34 0.00 82 999.6
20260508201550 61 5 12.2 19.1 0.00 0.34 0.00 84 999.1
20260508194605 61 57 29.5 42.6 0.00 0.34 0.00 82 998.0
20260508191556 61 7 19.1 28.7 0.00 0.34 0.00 86 998.4
20260508190041 61 34 16.5 33.9 0.00 0.34 0.00 86 998.4
20260508184515 61 30 20.9 34.8 0.00 0.34 0.00 84 998.4
20260508183017 61 13 21.7 38.2 0.00 0.34 0.00 84 998.8
20260508181556 61 23 24.3 35.6 0.00 0.34 0.00 83 998.7
20260508180056 61 19 25.2 37.4 0.00 0.34 0.00 85 998.6
20260508174509 62 2 25.2 45.2 0.00 0.34 0.00 83 998.7
20260508173033 62 350 21.7 33.0 0.00 0.34 0.00 86 998.8
20260508171525 62 15 23.5 39.1 0.00 0.34 0.00 85 999.1
20260508170005 62 34 21.7 33.0 0.00 0.34 0.00 86 999.1
20260508164547 62 7 25.2 39.1 0.00 0.34 0.00 85 999.5
20260508163034 62 15 21.7 30.4 0.00 0.34 0.00 86 999.3
20260508161520 62 42 20.0 28.7 0.00 0.34 0.00 87 999.5
20260508160002 61 29 13.9 28.7 0.00 0.34 0.00 89 999.7
20260508154544 61 24 17.4 26.9 0.00 0.34 0.00 88 1000.0
20260508153034 61 38 17.4 29.5 0.00 0.34 0.00 87 1000.3
20260508151547 61 18 18.2 28.7 0.00 0.34 0.00 87 1000.3
20260508150029 62 359 20.9 27.8 0.00 0.34 0.00 87 1000.1
20260508144551 62 33 17.4 31.3 0.00 0.34 0.00 88 1000.2
20260508143004 62 15 15.6 25.2 0.00 0.34 0.00 87 1000.3
20260508141520 62 31 17.4 27.8 0.00 0.34 0.00 87 1000.5
20260508140055 62 34 18.2 26.1 0.00 0.34 0.00 87 1000.5
20260508134555 62 26 20.0 26.9 0.00 0.35 0.00 85 1000.7
20260508133058 62 15 20.9 29.5 0.00 0.35 0.00 83 1000.9
20260508131522 63 354 27.8 38.2 0.00 0.35 0.00 81 1000.9
20260508130103 62 360 19.1 35.6 0.00 0.35 0.00 85 1001.0
20260508124537 62 15 20.0 28.7 0.00 0.35 0.00 85 1000.6
20260508123025 62 10 14.8 32.2 0.00 0.35 0.00 86 1000.9
20260508121557 62 7 18.2 30.4 0.00 0.35 0.00 88 1000.6
20260508120054 61 34 15.6 28.7 0.00 0.35 0.00 90 1000.6
20260508114527 60 57 17.4 26.1 0.00 0.35 0.00 90 1000.4
20260508113021 59 17 14.8 22.6 0.00 0.35 0.00 91 1000.6
20260508111508 59 37 12.2 24.3 0.00 0.35 0.00 92 1000.8
20260508110041 59 35 11.3 32.2 0.00 0.35 0.00 93 1000.7
20260508104600 59 47 10.4 24.3 0.00 0.35 0.35 94 1000.9
20260508103037 59 29 14.8 33.0 0.00 0.35 0.35 92 1001.5
20260508101515 59 38 21.7 34.8 0.02 0.35 0.35 92 1001.4
20260508100049 58 20 20.0 33.9 0.08 0.35 0.35 94 1002.0
20260508094544 57 17 17.4 30.4 0.13 0.35 0.35 94 1002.4
20260508093029 56 14 16.5 29.5 0.22 0.35 0.35 95 1002.6
20260508091556 57 355 23.5 42.6 0.22 0.33 0.33 92 1002.7
20260508091503 57 360 26.9 42.6 0.22 0.33 0.33 92 1002.6
20260508090051 60 18 15.6 24.3 0.17 0.26 0.26 93 1001.9
20260508090013 60 13 13.9 24.3 0.17 0.26 0.26 93 1001.9
20260508084517 61 58 11.3 18.2 0.12 0.21 0.21 90 1001.2
20260508083003 61 90 9.6 27.8 0.03 0.13 0.13 88 1001.1
20260508081538 61 15 9.6 20.0 0.02 0.11 0.11 88 1001.1
20260508080050 61 5 12.2 24.3 0.02 0.09 0.09 86 1001.6
20260508074600 61 48 9.6 20.0 0.06 0.10 0.09 88 1001.8
20260508071558 60 43 9.6 22.6 0.09 0.10 0.09 89 1002.2